[[{"header":{"parameterUnit":"m.s-1","parameterCategory":1,"la1":30.2991,"la2":30.254,"lo1":-89.0895,"lo2":-89.0444,"dy":0.0017,"dx":0.0017,"nx":28,"ny":28,"refTime":"2023-09-18T09:00:00:Z","depth":0,"parameterNumber":2,"parameterNumberName":"U-component_of_WINDS"},"data":[0,0,0,0,0,0,0,0,0,0,0,0,0,0,0,0,0,0,0,0,0,0,0,0,0,0,0,0,0,0,0,0,0,0,0,0,0,0,0,0,0,0,0,0,0,0,0,0,0,0,0,0,0,0,0,0,0,0,-2.5373,-2.5372,0,-2.5303,-2.5302,-2.5302,-2.5245,-2.5245,-2.5244,-2.5244,-2.5168,-2.5167,-2.5166,0,0,0,0,0,0,0,0,0,0,0,0,0,-2.5456,-2.5454,-2.5373,-2.5372,-2.5371,-2.5303,-2.5302,-2.5301,-2.5245,-2.5245,-2.5244,-2.5243,-2.5169,-2.5167,-2.5165,0,0,0,0,0,0,0,0,0,0,0,0,0,-2.5406,-2.5454,-2.5373,-2.5335,-2.5331,-2.5303,-2.5302,-2.5301,-2.5246,-2.5245,-2.5244,-2.5243,-2.517,-2.5167,-2.5165,-2.5168,0,0,-2.5158,-2.5157,0,0,0,0,0,0,0,0,-2.5409,-2.5403,-2.5342,-2.5338,-2.5333,-2.5282,-2.5304,-2.5256,-2.5246,-2.5278,-2.5244,-2.5243,-2.5207,-2.5201,-2.519,-2.5165,-2.5161,-2.5158,-2.5157,-2.5156,-2.5155,0,0,0,0,0,0,0,-2.5413,-2.5406,-2.5345,-2.5341,-2.5336,-2.5321,-2.5313,-2.5295,-2.5248,-2.5275,-2.5271,-2.5264,-2.5204,-2.5192,-2.5188,-2.516,-2.5158,-2.5156,-2.5155,-2.5154,-2.5135,-2.5136,0,0,0,0,0,0,-2.5422,-2.5409,-2.5347,-2.5343,-2.537,-2.532,-2.5311,-2.5299,-2.5248,-2.5239,-2.5264,-2.5261,-2.5197,-2.519,-2.5185,-2.5185,-2.5156,-2.5154,-2.5153,-2.5134,-2.5135,-2.5136,0,0,0,0,0,0,-2.5424,-2.5417,-2.535,-2.5375,-2.5365,-2.532,-2.5307,-2.5298,-2.5286,-2.524,-2.5231,-2.5261,-2.5196,-2.5188,-2.5173,-2.5181,-2.5153,-2.5151,-2.5133,-2.5135,-2.5136,-2.5185,0,0,0,0,0,0,-2.5427,-2.5418,-2.5419,-2.5375,-2.5364,-2.534,-2.5307,-2.5298,-2.5283,-2.5278,-2.5234,-2.5226,-2.5194,-2.5177,-2.5171,-2.5178,-2.5149,-2.5132,-2.5134,-2.5135,-2.5182,-2.5188,-2.5192,0,0,0,0,0,-2.543,-2.5435,-2.542,-2.5412,-2.5365,-2.5341,-2.5334,-2.5299,-2.5284,-2.5284,-2.5255,-2.5227,-2.5183,-2.5176,-2.5169,-2.5175,-2.5131,-2.5133,-2.5135,-2.518,-2.5186,-2.5192,0,0,0,0,0,0,-2.5478,-2.5428,-2.5411,-2.5402,-2.5376,-2.5331,-2.533,-2.5307,-2.5284,-2.528,-2.5236,-2.5227,-2.5217,-2.5195,-2.5188,-2.5176,-2.5153,-2.5154,-2.519,-2.5196,-2.5201,-2.5205,-2.5147,0,0,0,0,0,-2.5489,-2.5475,-2.5431,-2.5427,-2.5416,-2.5376,-2.5364,-2.5339,-2.531,-2.5299,-2.5268,-2.524,-2.522,-2.5207,-2.5186,-2.518,-2.5169,-2.5181,-2.5186,-2.5191,-2.519,-2.5186,-2.519,-2.5142,-2.5142,-2.5142,0,0,-2.5508,-2.5479,-2.5472,-2.5436,-2.5414,-2.5399,-2.5367,-2.5352,-2.5341,-2.5296,-2.528,-2.5258,-2.5224,-2.5214,-2.5208,-2.5195,-2.5202,-2.5193,-2.5197,-2.5194,-2.5188,-2.5193,-2.5197,-2.5143,-2.5143,-2.5143,0,0,-2.5536,-2.5514,-2.5508,-2.5487,-2.5454,-2.5427,-2.5427,-2.5386,-2.5369,-2.5354,-2.532,-2.5306,-2.5272,-2.5249,-2.5233,-2.5257,-2.523,-2.5252,-2.5276,-2.5272,-2.5276,-2.5279,-2.5286,-2.5289,-2.5252,-2.5252,-2.5253,0,-2.5564,-2.5541,-2.5507,-2.5496,-2.5481,-2.5443,-2.5436,-2.5417,-2.5378,-2.5369,-2.5356,-2.5314,-2.5288,-2.5272,-2.5278,-2.5267,-2.5264,-2.5254,-2.5279,-2.5281,-2.5284,-2.529,-2.5293,-2.5255,-2.5255,-2.5254,-2.5254,0,-2.5577,-2.5562,-2.5562,-2.5527,-2.5513,-2.5504,-2.5468,-2.5457,-2.5435,-2.5411,-2.5395,-2.5364,-2.5336,-2.5332,-2.5309,-2.5313,-2.5306,-2.5287,-2.5263,-2.5291,-2.5296,-2.5299,-2.5259,-2.5258,-2.5257,-2.5256,0,0,-2.5629,-2.5579,-2.5579,-2.5563,-2.5526,-2.5513,-2.5503,-2.5478,-2.5469,-2.5445,-2.5434,-2.5409,-2.5391,-2.5373,-2.5348,-2.5346,-2.5365,-2.5326,-2.5325,-2.5333,-2.5367,-2.538,-2.5383,-2.535,-2.535,-2.535,-2.5369,0,-2.5649,-2.563,-2.56,-2.559,-2.5576,-2.5541,-2.5533,-2.5509,-2.5486,-2.5471,-2.5446,-2.5427,-2.5407,-2.5396,-2.5392,-2.5364,-2.5371,-2.5362,-2.5338,-2.5337,-2.5344,-2.5386,-2.5399,-2.5418,-2.5371,-2.5371,-2.5371,0,-2.5669,-2.5649,-2.5638,-2.5603,-2.5596,-2.5588,-2.5563,-2.5549,-2.5522,-2.5506,-2.5488,-2.5462,-2.5449,-2.5431,-2.5412,-2.5407,-2.5396,-2.5381,-2.5381,-2.5375,-2.5354,-2.5378,-2.5423,-2.5425,-2.5375,-2.5374,-2.5374,0,-2.5707,-2.5676,-2.5666,-2.5654,-2.5613,-2.5609,-2.5592,-2.5564,-2.5551,-2.5529,-2.552,-2.5497,-2.5484,-2.5467,-2.5435,-2.5424,-2.542,-2.5398,-2.5405,-2.5406,-2.5402,-2.5402,-2.5444,-2.54,-2.54,-2.54,-2.54,0,-2.573,-2.5724,-2.5682,-2.5675,-2.5668,-2.5635,-2.5628,-2.5608,-2.5584,-2.5572,-2.5542,-2.5531,-2.5492,-2.5477,-2.5452,-2.5441,-2.5435,-2.5421,-2.5414,-2.5422,-2.5424,-2.5412,-2.5409,-2.5401,-2.5401,-2.5401,-2.54,0,-2.5769,-2.5741,-2.5727,-2.5691,-2.5682,-2.5678,-2.5646,-2.5638,-2.5616,-2.5602,-2.5597,-2.5561,-2.5542,-2.551,-2.5481,-2.5465,-2.5457,-2.5447,-2.5467,-2.5462,-2.547,-2.5469,-2.5502,-2.5504,-2.5462,-2.5463,-2.5463,0,-2.5785,-2.5779,-2.5744,-2.5735,-2.5719,-2.5704,-2.5692,-2.566,-2.5648,-2.5618,-2.5614,-2.5593,-2.5574,-2.5546,-2.5516,-2.5495,-2.5482,-2.5496,-2.5478,-2.5487,-2.548,-2.548,-2.5479,-2.5499,-2.5499,-2.55,-2.55,0,-2.5815,-2.5802,-2.5785,-2.5765,-2.5751,-2.5733,-2.5713,-2.5707,-2.5671,-2.5659,-2.564,-2.5626,-2.5598,-2.5577,-2.5552,-2.5534,-2.551,-2.5507,-2.5507,-2.5513,-2.5524,-2.5516,-2.5475,-2.5505,-2.5504,-2.5504,-2.5504,-2.5504,-2.5841,-2.5835,-2.581,-2.5792,-2.5775,-2.5758,-2.5749,-2.5727,-2.5711,-2.5686,-2.5669,-2.5651,-2.5625,-2.5589,-2.5573,-2.5558,-2.5548,-2.5548,-2.5547,-2.5547,-2.555,-2.5529,-2.5554,-2.5554,-2.5553,-2.5553,-2.5553,0,-2.5868,-2.5851,-2.5836,-2.581,-2.5797,-2.578,-2.5757,-2.5747,-2.5732,-2.5711,-2.5694,-2.5673,-2.5654,-2.5625,-2.5603,-2.5597,-2.5586,-2.5592,-2.559,-2.5586,-2.5561,-2.5563,-2.5601,-2.5601,-2.5601,-2.5601,-2.5601,-2.5601,-2.588,-2.5869,-2.5854,-2.5834,-2.5817,-2.58,-2.5789,-2.5773,-2.5756,-2.5734,-2.5718,-2.57,-2.5676,-2.5653,-2.5634,-2.5626,-2.5619,-2.5628,-2.5616,-2.5593,-2.5588,-2.5584,-2.5585,-2.5627,-2.5627,-2.5642,-2.5642,-2.5643]},{"header":{"parameterUnit":"m.s-1","parameterCategory":1,"la1":30.2991,"la2":30.254,"lo1":-89.0895,"lo2":-89.0444,"dy":0.0017,"dx":0.0017,"nx":28,"ny":28,"refTime":"2023-09-18T09:00:00:Z","depth":0,"parameterNumber":3,"parameterNumberName":"V-component_of_WINDS"},"data":[0,0,0,0,0,0,0,0,0,0,0,0,0,0,0,0,0,0,0,0,0,0,0,0,0,0,0,0,0,0,0,0,0,0,0,0,0,0,0,0,0,0,0,0,0,0,0,0,0,0,0,0,0,0,0,0,0,0,2.9431,2.9432,0,2.9457,2.9458,2.9458,2.9506,2.9507,2.9508,2.9509,2.953,2.953,2.953,0,0,0,0,0,0,0,0,0,0,0,0,0,2.9419,2.9419,2.9431,2.9432,2.9432,2.9457,2.9458,2.9458,2.9506,2.9507,2.9509,2.951,2.953,2.953,2.953,0,0,0,0,0,0,0,0,0,0,0,0,0,2.9432,2.9419,2.9431,2.9459,2.9462,2.9457,2.9458,2.9458,2.9506,2.9507,2.9509,2.951,2.953,2.953,2.9529,2.9498,0,0,2.9528,2.9528,0,0,0,0,0,0,0,0,2.9432,2.9433,2.9455,2.9457,2.946,2.948,2.9461,2.9471,2.9506,2.9489,2.9509,2.9511,2.9512,2.9513,2.9515,2.9499,2.95,2.9528,2.9528,2.9527,2.9527,0,0,0,0,0,0,0,2.9431,2.9432,2.9441,2.9455,2.9458,2.9469,2.9473,2.9463,2.9492,2.9491,2.9494,2.9497,2.9514,2.9515,2.9516,2.95,2.9528,2.9528,2.9527,2.9527,2.9461,2.9459,0,0,0,0,0,0,2.9426,2.9431,2.9441,2.9442,2.9449,2.9468,2.9472,2.9472,2.9492,2.9497,2.9496,2.9499,2.9515,2.9516,2.9516,2.9481,2.9527,2.9527,2.9527,2.9462,2.946,2.9459,0,0,0,0,0,0,2.9426,2.9427,2.944,2.9438,2.944,2.9467,2.9467,2.9472,2.9474,2.9496,2.9501,2.9492,2.9516,2.9517,2.9503,2.9483,2.9527,2.9526,2.9464,2.9462,2.946,2.941,0,0,0,0,0,0,2.9425,2.9426,2.9415,2.9437,2.944,2.9426,2.9466,2.9472,2.9473,2.9478,2.9494,2.9498,2.9518,2.9503,2.9502,2.9483,2.9526,2.9466,2.9463,2.946,2.9414,2.9407,2.9401,0,0,0,0,0,2.9425,2.9399,2.9414,2.9415,2.9427,2.9425,2.9427,2.9451,2.9471,2.946,2.9475,2.9498,2.9485,2.9501,2.9501,2.9481,2.9467,2.9464,2.946,2.9417,2.9408,2.9401,0,0,0,0,0,0,2.9371,2.9402,2.942,2.9401,2.941,2.9433,2.942,2.9441,2.9444,2.9448,2.9477,2.948,2.9462,2.947,2.9487,2.9452,2.948,2.9476,2.9447,2.9439,2.9432,2.943,2.9526,0,0,0,0,0,2.9358,2.9356,2.9382,2.9362,2.9367,2.9392,2.9392,2.9411,2.9421,2.9425,2.9439,2.9446,2.9444,2.9442,2.9442,2.9416,2.942,2.9402,2.9395,2.939,2.9386,2.9373,2.9366,2.9448,2.9448,2.9448,0,0,2.9329,2.9346,2.9342,2.9352,2.9362,2.9357,2.9395,2.9388,2.9385,2.9423,2.9411,2.9422,2.9432,2.9412,2.9404,2.9418,2.9364,2.9386,2.9381,2.938,2.9369,2.9361,2.9354,2.9446,2.9446,2.9446,0,0,2.9274,2.9287,2.9273,2.9282,2.9297,2.9315,2.9312,2.9332,2.9341,2.933,2.9359,2.9355,2.9351,2.9357,2.936,2.931,2.9331,2.9309,2.9274,2.9261,2.9255,2.9249,2.9231,2.9225,2.9305,2.9305,2.9305,0,2.9236,2.9232,2.9262,2.9254,2.9258,2.9295,2.928,2.9287,2.93,2.9301,2.9318,2.9315,2.9324,2.9307,2.9295,2.9296,2.9292,2.9307,2.9254,2.9249,2.9244,2.9227,2.922,2.9302,2.9303,2.9303,2.9303,0,2.9184,2.9181,2.9167,2.9182,2.9184,2.9172,2.92,2.9198,2.9217,2.9232,2.9221,2.9234,2.9237,2.9235,2.9252,2.922,2.9228,2.9249,2.9277,2.9233,2.9217,2.9211,2.9299,2.93,2.93,2.9301,0,0,2.9095,2.9128,2.9122,2.913,2.915,2.9148,2.9138,2.9143,2.9141,2.9149,2.9141,2.9138,2.9159,2.9162,2.918,2.9169,2.9129,2.9191,2.9192,2.9179,2.9094,2.9078,2.907,2.9144,2.9143,2.9142,2.9094,0,2.9044,2.9031,2.9058,2.9038,2.9035,2.9072,2.9063,2.9074,2.9089,2.9088,2.9103,2.9101,2.9127,2.913,2.9121,2.9136,2.9112,2.914,2.9135,2.9135,2.9131,2.9062,2.9045,2.8999,2.9088,2.9087,2.9086,0,2.8982,2.899,2.897,2.8994,2.8993,2.8985,2.8993,2.8992,2.9005,2.9017,2.9022,2.9044,2.9035,2.9064,2.9052,2.907,2.907,2.9077,2.9076,2.9076,2.9107,2.906,2.8985,2.8978,2.9077,2.9078,2.9078,0,2.8919,2.8924,2.8914,2.8919,2.8946,2.8939,2.895,2.8965,2.8966,2.8973,2.8974,2.8979,2.8981,2.8983,2.9006,2.9025,2.8991,2.9022,2.8999,2.8999,2.899,2.899,2.8913,2.899,2.8991,2.8991,2.8991,0,2.8859,2.8845,2.8886,2.8879,2.8865,2.8896,2.8881,2.8895,2.8908,2.8904,2.8935,2.8929,2.8961,2.8959,2.8977,2.8964,2.8964,2.8973,2.8977,2.897,2.8969,2.8969,2.8973,2.8989,2.8989,2.899,2.899,0,2.8785,2.8812,2.8803,2.883,2.8836,2.8824,2.8847,2.8841,2.8859,2.8853,2.8853,2.888,2.888,2.8904,2.8907,2.8919,2.8899,2.8909,2.8895,2.8898,2.8874,2.8876,2.8795,2.8786,2.8869,2.8868,2.8868,0,2.8745,2.8736,2.8762,2.8763,2.8773,2.8773,2.8776,2.8806,2.8808,2.8823,2.8815,2.8818,2.8822,2.8819,2.8838,2.8841,2.8852,2.8823,2.8852,2.8845,2.8851,2.8851,2.8851,2.8817,2.8816,2.8815,2.8814,0,2.867,2.8685,2.8689,2.8698,2.8701,2.8709,2.8719,2.8717,2.8751,2.8751,2.8752,2.8755,2.8761,2.8762,2.877,2.8779,2.8801,2.8805,2.88,2.8792,2.8784,2.8788,2.8877,2.8806,2.8807,2.8808,2.8808,2.8809,2.8612,2.8606,2.8624,2.8628,2.864,2.8648,2.8645,2.8663,2.8666,2.8674,2.8691,2.869,2.8704,2.8716,2.8724,2.8722,2.8736,2.8729,2.8727,2.8724,2.872,2.8785,2.8723,2.8724,2.8724,2.8724,2.8724,0,2.8539,2.8553,2.8557,2.8571,2.8574,2.8598,2.8611,2.8611,2.861,2.8622,2.8626,2.8627,2.863,2.865,2.8655,2.8649,2.866,2.8649,2.865,2.8652,2.8707,2.8711,2.8641,2.8641,2.8641,2.8641,2.8641,2.8641,2.8501,2.8493,2.8509,2.8507,2.8521,2.8521,2.8526,2.8535,2.8545,2.8546,2.8549,2.8563,2.8578,2.8585,2.8588,2.8593,2.8593,2.8579,2.8588,2.864,2.8648,2.8655,2.8659,2.8579,2.8579,2.8533,2.8533,2.8532]}]]